Morris, MN

1:55 AM CDT on May 25, 2017 (GMT -0500)
Morris Municipal

Weather History for KMOX - December, 2012

Change the Weather History Date:

Saturday, December 29, 2012

  Actual Average Record
Temperature  
Mean Temperature 2 °F -  
Max Temperature 12 °F 19 °F 55 °F (1999)
Min Temperature -7 °F 4 °F -16 °F (2013)
Degree Days  
Heating Degree Days 62    
Moisture  
Dew Point 1 °F    
Average Humidity 86    
Maximum Humidity 92    
Minimum Humidity 78    
Precipitation  
Precipitation 0.00 in - - ()
Sea Level Pressure  
Sea Level Pressure 30.06 in    
Wind  
Wind Speed 2 mph (WNW)    
Max Wind Speed 7 mph    
Max Gust Speed -    
Visibility 5 miles    
Events Fog , Snow    
Averages and records for this station are not official NWS values.
T = Trace of Precipitation, MM = Missing Value Source: NWS Daily Summary

Daily Weather History Graph

Daily Weather History Graph

Search for Another Location

Airport or City:

Trip Planner

Search our weather history database for the weather conditions in past years. The results will help you decide how hot, cold, wet, or windy it might be!

Date:

Astronomy

Dec. 29, 2012 Rise Set
Actual Time 8:04 AM CST 4:48 PM CST
Civil Twilight 7:29 AM CST 5:22 PM CST
Nautical Twilight 6:52 AM CST 6:00 PM CST
Astronomical Twilight 6:16 AM CST 6:36 PM CST
Moon 6:28 PM CST (12/29) 8:33 AM CST (12/29)
Length of Visible Light 9h 52m
Length of Day
8h 44m
Full, 98% of the Moon is Illuminated
Dec 29
Full
Jan 4
Last Quarter
Jan 11
New
Jan 18
First Quarter
Jan 26
Full

Hourly Weather History & Observations

Time (CST) Temp. Windchill Dew Point Humidity Pressure Visibility Wind Dir Wind Speed Gust Speed Precip Events Conditions
12:12 AM 12.2 °F - 10.4 °F 92% 30.04 in 7.0 mi Calm Calm - N/A Snow Light Snow
12:32 AM 12.2 °F 4.3 °F 10.4 °F 92% 30.04 in 5.0 mi WNW 4.6 mph - N/A Snow Light Snow
12:52 AM 12.2 °F 6.1 °F 10.4 °F 92% 30.03 in 5.0 mi WNW 3.5 mph - N/A Snow Light Snow
1:12 AM 12.2 °F - 10.4 °F 92% 30.03 in 4.0 mi Calm Calm - N/A Snow Light Snow
1:32 AM 12.2 °F - 10.4 °F 92% 30.03 in 5.0 mi Calm Calm - N/A Snow Light Snow
1:52 AM 12.2 °F - 10.4 °F 92% 30.03 in 5.0 mi Calm Calm - N/A Snow Light Snow
2:12 AM 12.2 °F 6.1 °F 10.4 °F 92% 30.04 in 5.0 mi West 3.5 mph - N/A Snow Light Snow
2:32 AM 12.2 °F 6.1 °F 10.4 °F 92% 30.04 in 4.0 mi West 3.5 mph - N/A Snow Light Snow
2:52 AM 12.2 °F 6.1 °F 10.4 °F 92% 30.04 in 3.0 mi WSW 3.5 mph - N/A Snow Light Snow
3:12 AM 12.2 °F - 10.4 °F 92% 30.04 in 5.0 mi Calm Calm - N/A Snow Light Snow
3:32 AM 10.4 °F - 8.6 °F 92% 30.04 in 5.0 mi Calm Calm - N/A Snow Light Snow
3:52 AM 10.4 °F - 8.6 °F 92% 30.03 in 4.0 mi Calm Calm - N/A Snow Light Snow
4:12 AM 10.4 °F - 8.6 °F 92% 30.04 in 5.0 mi Calm Calm - N/A Snow Light Snow
4:32 AM 10.4 °F 2.2 °F 8.6 °F 92% 30.04 in 3.0 mi WNW 4.6 mph - N/A Snow Light Snow
4:52 AM 10.4 °F - 6.8 °F 85% 30.03 in 1.8 mi Calm Calm - N/A Snow Light Snow
5:12 AM 10.4 °F - 6.8 °F 85% 30.03 in 1.2 mi Calm Calm - N/A Snow Light Snow
5:32 AM 8.6 °F - 6.8 °F 92% 30.03 in 0.5 mi Calm Calm - N/A Snow Light Snow
5:52 AM 8.6 °F - 5.0 °F 85% 30.03 in 0.2 mi Calm Calm - N/A Snow Light Snow
6:12 AM 6.8 °F - 3.2 °F 85% 30.04 in 0.2 mi Calm Calm - N/A Snow Light Snow
6:32 AM 3.2 °F - 1.4 °F 92% 30.04 in 0.2 mi Calm Calm - N/A Snow Light Snow
6:52 AM 3.2 °F - -0.4 °F 85% 30.04 in 0.2 mi Calm Calm - N/A Snow Light Snow
7:12 AM 1.4 °F - -2.2 °F 85% 30.04 in 0.2 mi Calm Calm - N/A Snow Light Snow
7:32 AM -0.4 °F - -4.0 °F 85% 30.04 in 0.2 mi Calm Calm - N/A Fog Light Freezing Fog
7:52 AM -2.2 °F - -7.6 °F 78% 30.05 in 0.2 mi Calm Calm - N/A Fog Light Freezing Fog
8:12 AM -5.8 °F - -9.4 °F 84% 30.05 in 0.2 mi Calm Calm - N/A Fog Light Freezing Fog
8:32 AM -5.8 °F - -9.4 °F 84% 30.06 in 0.2 mi Calm Calm - N/A Snow Light Snow
8:52 AM -5.8 °F - -9.4 °F 84% 30.05 in 0.5 mi Calm Calm - N/A Fog Light Freezing Fog
9:12 AM -2.2 °F - -7.6 °F 78% 30.05 in 2.5 mi Calm Calm - N/A   Overcast
9:32 AM 1.4 °F - -2.2 °F 85% 30.06 in 5.0 mi Calm Calm - N/A   Overcast
9:52 AM 3.2 °F - -0.4 °F 85% 30.07 in 7.0 mi Calm Calm - N/A   Overcast
10:12 AM 5.0 °F - 1.4 °F 85% 30.07 in 3.0 mi Calm Calm - N/A   Overcast
10:32 AM 5.0 °F - 1.4 °F 85% 30.07 in 7.0 mi Calm Calm - N/A   Mostly Cloudy
10:52 AM 6.8 °F - 3.2 °F 85% 30.07 in 4.0 mi Calm Calm - N/A Snow Light Snow
11:12 AM 8.6 °F -2.6 °F 5.0 °F 85% 30.07 in 7.0 mi NW 6.9 mph - N/A   Clear
11:32 AM 8.6 °F -1.3 °F 5.0 °F 85% 30.07 in 10.0 mi NW 5.8 mph - N/A   Clear
11:52 AM 8.6 °F 0.1 °F 5.0 °F 85% 30.06 in 10.0 mi NW 4.6 mph - N/A   Clear
12:12 PM 8.6 °F -2.6 °F 6.8 °F 92% 30.05 in 10.0 mi NW 6.9 mph - N/A   Clear
12:32 PM 8.6 °F -1.3 °F 6.8 °F 92% 30.06 in 10.0 mi NNW 5.8 mph - N/A   Clear
12:52 PM 8.6 °F 2.0 °F 6.8 °F 92% 30.05 in 10.0 mi NW 3.5 mph - N/A   Clear
1:12 PM 10.4 °F 2.2 °F 6.8 °F 85% 30.04 in 10.0 mi WNW 4.6 mph - N/A   Clear
1:32 PM 8.6 °F -2.6 °F 6.8 °F 92% 30.05 in 10.0 mi WNW 6.9 mph - N/A   Clear
1:52 PM 8.6 °F -2.6 °F 6.8 °F 92% 30.05 in 4.0 mi WNW 6.9 mph - N/A Snow Light Snow
2:32 PM 8.6 °F -2.6 °F 5.0 °F 85% 30.06 in 5.0 mi WNW 6.9 mph - N/A Snow Light Snow
2:52 PM 8.6 °F 0.1 °F 5.0 °F 85% 30.06 in 10.0 mi WNW 4.6 mph - N/A   Clear
3:12 PM 6.8 °F -2.0 °F 3.2 °F 85% 30.06 in 10.0 mi WNW 4.6 mph - N/A   Clear
3:32 PM 6.8 °F -2.0 °F 3.2 °F 85% 30.06 in 10.0 mi West 4.6 mph - N/A   Clear
3:52 PM 6.8 °F -0.1 °F 3.2 °F 85% 30.07 in 10.0 mi WNW 3.5 mph - N/A   Clear
4:12 PM 5.0 °F -2.1 °F 1.4 °F 85% 30.07 in 10.0 mi WNW 3.5 mph - N/A   Clear
4:32 PM 5.0 °F -2.1 °F 1.4 °F 85% 30.08 in 10.0 mi West 3.5 mph - N/A   Clear
4:52 PM 3.2 °F - -0.4 °F 85% 30.08 in 7.0 mi Calm Calm - N/A   Clear
5:12 PM 1.4 °F -6.2 °F -2.2 °F 85% 30.08 in 10.0 mi WNW 3.5 mph - N/A   Clear
5:32 PM 1.4 °F - -2.2 °F 85% 30.09 in 7.0 mi Calm Calm - N/A   Clear
5:52 PM 1.4 °F - -2.2 °F 85% 30.09 in 7.0 mi Calm Calm - N/A   Clear
6:12 PM -0.4 °F - -4.0 °F 85% 30.09 in 7.0 mi Calm Calm - N/A   Clear
6:32 PM 1.4 °F - -2.2 °F 85% 30.08 in 7.0 mi Calm Calm - N/A   Clear
7:12 PM -0.4 °F - -2.2 °F 92% 30.10 in 5.0 mi Calm Calm - N/A   Clear
7:32 PM -2.2 °F - -5.8 °F 85% 30.10 in 4.0 mi Calm Calm - N/A   Clear
7:52 PM -2.2 °F - -5.8 °F 85% 30.09 in 5.0 mi Calm Calm - N/A   Clear
8:12 PM -0.4 °F - -4.0 °F 85% 30.09 in 2.5 mi Calm Calm - N/A   Clear
8:32 PM -0.4 °F - -5.8 °F 78% 30.09 in 1.8 mi Calm Calm - N/A   Mist
8:52 PM -2.2 °F - -7.6 °F 78% 30.10 in 0.5 mi Calm Calm - N/A Fog Light Freezing Fog
9:12 PM -2.2 °F - -7.6 °F 78% 30.11 in 0.5 mi Calm Calm - N/A Fog Light Freezing Fog
9:32 PM -2.2 °F - -7.6 °F 78% 30.11 in 2.0 mi Calm Calm - N/A   Clear
9:52 PM -2.2 °F - -7.6 °F 78% 30.11 in 1.5 mi Calm Calm - N/A   Mist
10:12 PM -4.0 °F - -7.6 °F 85% 30.10 in 4.0 mi Calm Calm - N/A   Clear
10:32 PM -7.6 °F - -11.2 °F 84% 30.10 in 7.0 mi Calm Calm - N/A   Clear
10:52 PM -5.8 °F - -9.4 °F 84% 30.10 in 5.0 mi Calm Calm - N/A   Clear
11:12 PM -7.6 °F -16.5 °F -11.2 °F 84% 30.12 in 7.0 mi South 3.5 mph - N/A   Scattered Clouds
11:32 PM -7.6 °F - -11.2 °F 84% 30.11 in 7.0 mi Calm Calm - N/A   Scattered Clouds
11:52 PM -7.6 °F - -11.2 °F 84% 30.10 in 3.0 mi Calm Calm - N/A   Mostly Cloudy